When you browse on this site, cookies collect data to enhance your experience and personalize the content and advertising you see.
Visit our Privacy Policy to learn more. By continuing to use the site, you agree to this use of cookies and data.
  • Em Portugal
  • Lista de países
  • Para 7 dias
  • Temperatura da água
  • Mapa do tempo
  • Widgets de tempo
  • user-avatar
    Iniciar Sessão

    Previsão horária em Ghazni

    Hoje, 22 Outubro, Terça-feira

    Tempo Temperatura Precipitação Vento Pressão Humidade
    00:00 +8°C° 0 mm 2 m/s 585 mmHg 24%
    01:00 +9°C° 0 mm 1 m/s 585 mmHg 25%
    02:00 +8°C° 0 mm 1 m/s 585 mmHg 26%
    03:00 +7°C° 0 mm 1 m/s 584 mmHg 28%
    04:00 +7°C° 0 mm 1 m/s 584 mmHg 29%
    05:00 +6°C° 0 mm 1 m/s 583 mmHg 30%
    06:00 +8°C° 0 mm 1 m/s 584 mmHg 27%
    07:00 +8°C° 0 mm 0 m/s 585 mmHg 25%
    08:00 +9°C° 0 mm 0 m/s 586 mmHg 23%
    09:00 +12°C° 0 mm 1 m/s 587 mmHg 21%
    10:00 +13°C° 0 mm 1 m/s 587 mmHg 20%
    11:00 +15°C° 0 mm 1 m/s 588 mmHg 18%
    12:00 +16°C° 0 mm 2 m/s 588 mmHg 17%
    13:00 +17°C° 0 mm 2 m/s 588 mmHg 17%
    14:00 +18°C° 0 mm 3 m/s 588 mmHg 17%
    15:00 +18°C° 0 mm 4 m/s 587 mmHg 18%
    16:00 +18°C° 0 mm 4 m/s 587 mmHg 19%
    17:00 +17°C° 0 mm 5 m/s 587 mmHg 21%
    18:00 +15°C° 0 mm 4 m/s 587 mmHg 24%
    19:00 +13°C° 0 mm 4 m/s 587 mmHg 28%
    20:00 +12°C° 0 mm 3 m/s 586 mmHg 31%
    21:00 +11°C° 0 mm 3 m/s 586 mmHg 33%
    22:00 +10°C° 0 mm 2 m/s 586 mmHg 36%
    23:00 +9°C° 0 mm 2 m/s 585 mmHg 38%

    Amanhã, 23 Outubro, Quarta-feira

    Tempo Temperatura Precipitação Vento Pressão Humidade
    00:00 +9°C° 0 mm 2 m/s 585 mmHg 40%
    01:00 +9°C° 0 mm 1 m/s 585 mmHg 43%
    02:00 +8°C° 0 mm 1 m/s 584 mmHg 45%
    03:00 +8°C° 0 mm 1 m/s 584 mmHg 47%
    04:00 +6°C° 0 mm 2 m/s 584 mmHg 49%
    05:00 +6°C° 0 mm 2 m/s 584 mmHg 51%
    06:00 +7°C° 0 mm 2 m/s 584 mmHg 49%
    07:00 +9°C° 0 mm 1 m/s 585 mmHg 47%
    08:00 +10°C° 0 mm 1 m/s 586 mmHg 44%
    09:00 +11°C° 0 mm 1 m/s 586 mmHg 39%
    10:00 +13°C° 0 mm 1 m/s 587 mmHg 34%
    11:00 +15°C° 0 mm 1 m/s 587 mmHg 28%
    12:00 +15°C° 0 mm 2 m/s 587 mmHg 25%
    13:00 +16°C° 0 mm 2 m/s 587 mmHg 22%
    14:00 +17°C° 0 mm 2 m/s 586 mmHg 19%
    15:00 +17°C° 0 mm 3 m/s 586 mmHg 20%
    16:00 +17°C° 0 mm 3 m/s 586 mmHg 20%
    17:00 +17°C° 0 mm 3 m/s 586 mmHg 20%
    18:00 +14°C° 0 mm 3 m/s 585 mmHg 24%
    19:00 +13°C° 0 mm 2 m/s 585 mmHg 27%
    20:00 +10°C° 0 mm 2 m/s 585 mmHg 30%
    21:00 +9°C° 0 mm 2 m/s 585 mmHg 33%
    22:00 +9°C° 0 mm 2 m/s 585 mmHg 35%
    23:00 +8°C° 0 mm 2 m/s 585 mmHg 38%

    Depois de amanhã, 24 Outubro, Quinta-feira

    Tempo Temperatura Precipitação Vento Pressão Humidade
    00:00 +8°C° 0 mm 1 m/s 584 mmHg 40%
    01:00 +7°C° 0 mm 1 m/s 584 mmHg 43%
    02:00 +7°C° 0 mm 1 m/s 584 mmHg 46%
    03:00 +6°C° 0 mm 1 m/s 583 mmHg 48%
    04:00 +6°C° 0 mm 1 m/s 583 mmHg 49%
    05:00 +4°C° 0 mm 0 m/s 583 mmHg 51%
    06:00 +6°C° 0 mm 0 m/s 584 mmHg 46%
    07:00 +7°C° 0 mm 0 m/s 585 mmHg 42%
    08:00 +8°C° 0 mm 0 m/s 586 mmHg 37%
    09:00 +11°C° 0 mm 1 m/s 587 mmHg 34%
    10:00 +13°C° 0 mm 1 m/s 587 mmHg 31%
    11:00 +14°C° 0 mm 2 m/s 588 mmHg 27%
    12:00 +15°C° 0 mm 2 m/s 588 mmHg 25%
    13:00 +16°C° 0 mm 2 m/s 588 mmHg 23%
    14:00 +17°C° 0 mm 2 m/s 587 mmHg 21%
    15:00 +17°C° 0 mm 2 m/s 587 mmHg 21%
    16:00 +17°C° 0 mm 2 m/s 587 mmHg 20%
    17:00 +16°C° 0 mm 2 m/s 587 mmHg 20%
    18:00 +14°C° 0 mm 2 m/s 587 mmHg 23%
    19:00 +13°C° 0 mm 2 m/s 586 mmHg 27%
    20:00 +11°C° 0 mm 1 m/s 586 mmHg 30%
    21:00 +10°C° 0 mm 1 m/s 586 mmHg 32%
    22:00 +10°C° 0 mm 1 m/s 586 mmHg 34%
    23:00 +9°C° 0 mm 1 m/s 586 mmHg 36%

    25 Outubro, Sexta-feira

    Tempo Temperatura Precipitação Vento Pressão Humidade
    00:00 +8°C° 0 mm 1 m/s 585 mmHg 38%
    01:00 +7°C° 0 mm 1 m/s 585 mmHg 41%
    02:00 +5°C° 0 mm 0 m/s 584 mmHg 43%
    03:00 +5°C° 0 mm 0 m/s 584 mmHg 45%
    04:00 +4°C° 0 mm 0 m/s 583 mmHg 46%
    05:00 +4°C° 0 mm 0 m/s 583 mmHg 48%
    06:00 +5°C° 0 mm 0 m/s 584 mmHg 43%
    07:00 +7°C° 0 mm 0 m/s 585 mmHg 38%
    08:00 +8°C° 0 mm 0 m/s 587 mmHg 33%
    09:00 +10°C° 0 mm 0 m/s 587 mmHg 30%
    10:00 +13°C° 0 mm 1 m/s 587 mmHg 27%
    11:00 +14°C° 0 mm 1 m/s 588 mmHg 24%
    12:00 +15°C° 0 mm 2 m/s 588 mmHg 22%
    13:00 +16°C° 0 mm 2 m/s 588 mmHg 20%
    14:00 +17°C° 0 mm 2 m/s 588 mmHg 18%
    15:00 +17°C° 0 mm 2 m/s 588 mmHg 18%
    16:00 +17°C° 0 mm 3 m/s 587 mmHg 17%
    17:00 +17°C° 0 mm 3 m/s 587 mmHg 17%
    18:00 +14°C° 0 mm 3 m/s 587 mmHg 20%
    19:00 +13°C° 0 mm 2 m/s 586 mmHg 23%
    20:00 +10°C° 0 mm 2 m/s 586 mmHg 26%
    21:00 +9°C° 0 mm 2 m/s 586 mmHg 27%
    22:00 +9°C° 0 mm 1 m/s 585 mmHg 28%
    23:00 +8°C° 0 mm 1 m/s 585 mmHg 30%

    26 Outubro, Sábado

    Tempo Temperatura Precipitação Vento Pressão Humidade
    00:00 +7°C° 0 mm 1 m/s 585 mmHg 31%
    01:00 +7°C° 0 mm 1 m/s 584 mmHg 33%
    02:00 +5°C° 0 mm 0 m/s 584 mmHg 34%
    03:00 +4°C° 0 mm 0 m/s 584 mmHg 36%
    04:00 +4°C° 0 mm 0 m/s 584 mmHg 37%
    05:00 +3°C° 0 mm 0 m/s 583 mmHg 38%
    06:00 +5°C° 0 mm 0 m/s 585 mmHg 35%
    07:00 +6°C° 0 mm 0 m/s 586 mmHg 31%
    08:00 +8°C° 0 mm 0 m/s 587 mmHg 27%
    09:00 +11°C° 0 mm 1 m/s 588 mmHg 24%
    10:00 +12°C° 0 mm 1 m/s 588 mmHg 22%
    11:00 +14°C° 0 mm 1 m/s 589 mmHg 19%
    12:00 +15°C° 0 mm 1 m/s 589 mmHg 18%
    13:00 +16°C° 0 mm 2 m/s 589 mmHg 16%
    14:00 +17°C° 0 mm 2 m/s 589 mmHg 15%
    15:00 +17°C° 0 mm 2 m/s 588 mmHg 16%
    16:00 +17°C° 0 mm 2 m/s 588 mmHg 16%
    17:00 +16°C° 0 mm 2 m/s 588 mmHg 16%
    18:00 +15°C° 0 mm 2 m/s 588 mmHg 19%
    19:00 +13°C° 0 mm 2 m/s 588 mmHg 21%
    20:00 +10°C° 0 mm 2 m/s 587 mmHg 23%
    21:00 +11°C° 0 mm 1 m/s 587 mmHg 24%
    22:00 +10°C° 0 mm 1 m/s 587 mmHg 25%
    23:00 +9°C° 0 mm 1 m/s 587 mmHg 26%

    27 Outubro, Domingo

    Tempo Temperatura Precipitação Vento Pressão Humidade
    00:00 +8°C° 0 mm 1 m/s 587 mmHg 28%
    01:00 +7°C° 0 mm 1 m/s 586 mmHg 30%
    02:00 +7°C° 0 mm 1 m/s 585 mmHg 32%
    03:00 +5°C° 0 mm 0 m/s 585 mmHg 33%
    04:00 +5°C° 0 mm 0 m/s 585 mmHg 34%
    05:00 +4°C° 0 mm 0 m/s 585 mmHg 35%
    06:00 +6°C° 0 mm 0 m/s 586 mmHg 32%
    07:00 +7°C° 0 mm 0 m/s 587 mmHg 29%
    08:00 +10°C° 0 mm 1 m/s 588 mmHg 26%
    09:00 +12°C° 0 mm 1 m/s 589 mmHg 24%
    10:00 +14°C° 0 mm 1 m/s 590 mmHg 21%
    11:00 +15°C° 0 mm 1 m/s 591 mmHg 19%
    12:00 +16°C° 0 mm 1 m/s 590 mmHg 18%
    13:00 +17°C° 0 mm 2 m/s 590 mmHg 17%
    14:00 +18°C° 0 mm 2 m/s 590 mmHg 16%
    15:00 +18°C° 0 mm 2 m/s 590 mmHg 17%
    16:00 +18°C° 0 mm 3 m/s 590 mmHg 18%
    17:00 +18°C° 0 mm 3 m/s 589 mmHg 19%
    18:00 +16°C° 0 mm 2 m/s 589 mmHg 22%
    19:00 +14°C° 0 mm 2 m/s 589 mmHg 26%
    20:00 +12°C° 0 mm 2 m/s 588 mmHg 30%
    21:00 +12°C° 0 mm 2 m/s 589 mmHg 31%
    22:00 +12°C° 0 mm 1 m/s 589 mmHg 33%
    23:00 +12°C° 0 mm 1 m/s 589 mmHg 35%

    28 Outubro, Segunda-feira

    Tempo Temperatura Precipitação Vento Pressão Humidade
    00:00 +11°C° 0 mm 1 m/s 588 mmHg 37%
    01:00 +10°C° 0 mm 1 m/s 587 mmHg 40%
    02:00 +9°C° 0 mm 1 m/s 587 mmHg 43%
    03:00 +8°C° 0 mm 1 m/s 586 mmHg 45%
    04:00 +8°C° 0 mm 1 m/s 586 mmHg 47%
    05:00 +7°C° 0 mm 1 m/s 586 mmHg 49%
    06:00 +8°C° 0 mm 0 m/s 587 mmHg 46%
    07:00 +9°C° 0 mm 0 m/s 588 mmHg 42%
    08:00 +11°C° 0 mm 0 m/s 589 mmHg 38%
    09:00 +13°C° 0 mm 1 m/s 589 mmHg 34%
    10:00 +15°C° 0 mm 1 m/s 590 mmHg 30%
    11:00 +18°C° 0 mm 1 m/s 590 mmHg 26%
    12:00 +19°C° 0 mm 1 m/s 590 mmHg 25%
    13:00 +19°C° 0 mm 2 m/s 590 mmHg 24%
    14:00 +20°C° 0 mm 2 m/s 590 mmHg 22%
    15:00 +20°C° 0 mm 2 m/s 590 mmHg 23%
    16:00 +19°C° 0 mm 2 m/s 590 mmHg 23%
    17:00 +19°C° 0 mm 2 m/s 589 mmHg 24%
    18:00 +17°C° 0 mm 3 m/s 589 mmHg 27%
    19:00 +16°C° 0 mm 3 m/s 589 mmHg 30%
    20:00 +13°C° 0 mm 3 m/s 589 mmHg 32%
    21:00 +12°C° 0 mm 3 m/s 589 mmHg 34%
    22:00 +12°C° 0 mm 3 m/s 588 mmHg 35%
    23:00 +12°C° 0 mm 2 m/s 588 mmHg 36%
    Mostrar mais